TITAN 3A TRANSTAGE R/B, 1001

Orbit data source: Space-Track

TITAN 3A TRANSTAGE R/B, 1001 is space debris in LEO originally from a launch on Thu, 11 Feb 1965 UTC via a TITAN IIIA launch vehicle from the Air Force Eastern Test Range (AFETR). Debris objects in space refer to the collection of defunct objects orbiting the Earth. Examples of debris include non-operational satellites, rocket bodies, and fragments generated from explosions, collisions, or faulty payload assembly.

Loading next visibility...
Identifier
1001, 1965-008A
Orbit
LEO
Country
Flag of USUS
Related business
Manufacturer
Martin Marietta
Mission
Spacecraft
Bus & Motor
TRUSS, Unknown motor
Mass
336 kg wet, 336 kg dry
Launch date (UTC)
1965-02-11 (61 years ago)
Launch vehicle
TITAN IIIA
Launch site
Air Force Eastern Test Range (AFETR)
Object type
Payload
Rocket body
Debris
Shape & HBR
Unknown
Radar Cross Section
Large (>1 m²)

Expand to show TLE details & history
Last TLE update: 5 hours ago

TLE from 5 hours ago
0 TITAN 3A TRANSTAGE R/B
1  1001U 65008A   25312.86467203  .00000009  00000-0  80402-4 0  9997
2  1001  32.1468 272.5385 0018005 184.3623 175.6719  9.90722139199626
Epoch: 2025-11-08T20:45Z
TLE epoch observation values (Epoch: 2025-11-08T20:45:07.663Z)
Latitude
-0.00002°
Longitude
-87.03162°
Altitude
2,794.557 km
Speed
6.588 km/s
True Right ascension
18h 10m 09s
True Declination
0° 00' 00"
Sunlit
Object was in daylight at epoch
Visualization orbit readout
Latitude
Unknown
Longitude
Unknown
Altitude
Unknown
Speed
Unknown
Apparent Right ascension
Unknown
Apparent Declination
Unknown
Sunlit
N/A
Visualization observer readout
Local Sidereal Time
21:40:47
Azimuth
Unknown
Elevation
Unknown
Doppler factor
Unknown
Orbital elements
Apogee altitude
2,798.425 km
Perigee altitude
2,765.44 km
Semi-major axis
9,160.069 km
Eccentricity
0.0018
Inclination
32.1468°
RAAN
272.5385°
Arg. of periapsis
184.3623°
True anomaly
175.68744°
Mean anomaly
175.6719°
Eccentric anomaly
175.67967°
Mean motion
2.47568 °/min
Orbital period
145.41 mins
BSTAR
0.000080402
Loading maneuver chart data...
Computing Atmospheric mass density...
Loading historical data...
Loading historical data...
Loading historical data...
Loading historical data...
Loading historical data...
Loading historical data...
Loading historical data...
Other satellites on launch #8 in the year 1965 (1965-02-11 UTC)

Documentation

Showing up to 5 results
|